Location: Berlise
(49.6641°N, 4.1077°E)
Time: 19:50:12
(UTC+00:00)

Lacrosse 4 Rocket - Pass Details

Date: 27 January 2021
Orbit: 536 x 621 km, 68.0° (Epoch: 27 February)

Event Time Altitude Azimuth Distance (km) Brightness Sun altitude
Exits shadow 05:40:46 28° 252° (WSW) 1,123 2.4 -16.4°
Maximum altitude 05:42:41 47° 310° (NW) 786 1.7 -16.1°
Drops below altitude 10° 05:46:57 10° 25° (NNE) 1,958 4.3 -15.4°
Sets 05:49:19 0° 32° (NNE) 2,877 5.3 -15.0°
